Location: Beetenbrück
(52.8113°N, 9.5946°E)
Time: 16:12:21
(UTC+00:00)

PSLV R/B - Pass Details

Date: 14 April 2026
Orbit: 584 x 680 km, 97.9° (Epoch: 9 May)

Event Time Altitude Azimuth Distance (km) Brightness Sun altitude
Rises 23:33:26 0° 10° (N) 2,865 8.2 -27.4°
Reaches altitude 10° 23:35:41 10° 5° (N) 1,946 7.1 -27.4°
Enters shadow 23:39:00 42° 324° (NW) 846 4.5 -27.4°
